EW2835 Weather Reports


time (UTC)temp
F
wind
direction
speed
knots
gust
knots
rain 1hr
in
rain 24hr
in
rain mn
in
humidity
%
barometer
mb
20260509143018 61 108 1.7 5.2 0.00 0.00 0.00 52 1019.7
20260509141516 61 159 0.0 2.6 0.00 0.00 0.00 55 1019.9
20260509140014 62 301 1.7 7.0 0.00 0.00 0.00 52 1019.9
20260509134510 62 36 0.9 4.3 0.00 0.00 0.00 51 1020.1
20260509133009 61 71 0.0 5.2 0.00 0.00 0.00 57 1020.3
20260509131509 61 159 0.9 2.6 0.00 0.00 0.00 53 1020.4
20260509130011 61 142 0.0 3.5 0.00 0.00 0.00 53 1020.5
20260509124505 63 186 1.7 5.2 0.00 0.00 0.00 50 1020.6
20260509123003 63 171 0.9 6.1 0.00 0.00 0.00 49 1020.7
20260509121501 61 90 0.9 5.2 0.00 0.00 0.00 51 1020.8
20260509120101 61 138 0.9 4.3 0.00 0.00 0.00 53 1020.9
20260509114606 61 136 1.7 5.2 0.00 0.00 0.00 52 1020.9
20260509113102 60 306 0.0 4.3 0.00 0.00 0.00 53 1020.9
20260509111558 61 213 0.9 6.1 0.00 0.00 0.00 53 1021.0
20260509110108 61 107 2.6 5.2 0.00 0.00 0.00 52 1021.1
20260509104555 63 122 2.6 6.1 0.00 0.00 0.00 49 1021.1
20260509103102 59 111 0.0 7.0 0.00 0.00 0.00 56 1021.2
20260509101604 61 109 2.6 7.8 0.00 0.00 0.00 51 1021.3
20260509100052 59 350 0.9 3.5 0.00 0.00 0.00 56 1021.4
20260509094603 62 68 0.9 3.5 0.00 0.00 0.00 57 1021.4
20260509093050 60 81 0.0 2.6 0.00 0.00 0.00 55 1021.5
20260509091548 60 76 1.7 3.5 0.00 0.00 0.00 59 1021.5
20260509090054 59 76 2.6 4.3 0.00 0.00 0.00 61 1021.5
20260509084547 59 298 0.9 5.2 0.00 0.00 0.00 61 1021.6
20260509083052 58 100 0.9 6.1 0.00 0.00 0.00 66 1021.6
20260509081537 57 71 0.9 3.5 0.00 0.00 0.00 68 1021.6
20260509080036 57 96 0.0 3.5 0.00 0.00 0.00 70 1021.6
20260509074532 56 70 0.9 4.3 0.00 0.00 0.00 70 1021.6
20260509073031 54 76 0.0 2.6 0.00 0.00 0.00 73 1021.6
20260509071533 53 58 0.0 2.6 0.00 0.00 0.00 75 1021.5
20260509070020 52 34 0.0 1.7 0.00 0.00 0.00 77 1021.5
20260509064517 50 33 0.0 1.7 0.00 0.00 0.00 84 1021.4
20260509063020 48 110 0.0 0.0 0.00 0.00 0.00 93 1021.4
20260509061508 47 110 0.0 0.0 0.00 0.00 0.00 94 1021.4
20260509060006 46 110 0.0 0.0 0.00 0.00 0.00 94 1021.4
20260509054503 45 110 0.0 0.0 0.00 0.00 0.00 94 1021.4
20260509053134 44 57 0.0 0.0 0.00 0.00 0.00 93 1021.4
20260509051558 43 57 0.0 0.0 0.00 0.00 0.00 92 1021.4
20260509050056 43 57 0.0 0.0 0.00 0.00 0.00 92 1021.1
20260509044632 42 57 0.0 0.0 0.00 0.00 0.00 91 1021.1
20260509043132 42 57 0.0 0.0 0.00 0.00 0.00 90 1021.1
20260509041550 42 57 0.0 0.0 0.00 0.00 0.00 90 1021.0
20260509040048 42 57 0.0 0.0 0.00 0.00 0.00 89 1021.0
20260509034539 43 57 0.0 0.0 0.00 0.00 0.00 87 1021.0
20260509033031 43 57 0.0 0.0 0.00 0.00 0.00 86 1021.0
20260509031544 44 57 0.0 0.0 0.00 0.00 0.00 85 1020.9
20260509030041 46 57 0.0 0.0 0.00 0.00 0.00 84 1021.0
20260509024521 46 57 0.0 0.9 0.00 0.00 0.00 83 1021.0
20260509023022 47 57 0.9 1.7 0.00 0.00 0.00 81 1020.9
20260509021516 48 76 0.9 1.7 0.00 0.00 0.00 81 1020.9
20260509020014 48 76 0.0 1.7 0.00 0.00 0.00 81 1021.0
20260509014513 48 76 0.0 0.9 0.00 0.00 0.00 80 1021.0
20260509013013 48 76 0.0 1.7 0.00 0.00 0.00 79 1021.0
20260509011511 48 68 0.9 2.6 0.00 0.00 0.00 79 1020.9
20260509010009 48 15 0.0 1.7 0.00 0.00 0.00 80 1020.9
20260509004507 48 12 0.0 1.7 0.00 0.00 0.00 81 1020.9
20260509003009 48 12 0.0 0.9 0.00 0.00 0.00 82 1021.0
20260509001503 49 12 0.0 1.7 0.00 0.00 0.00 82 1021.1
20260508234557 49 76 0.0 0.9 0.00 0.00 0.00 86 1021.2
20260508233059 49 76 0.0 1.7 0.00 0.00 0.00 85 1021.0
20260508231556 49 76 0.9 1.7 0.00 0.00 0.00 84 1021.1
20260508230055 49 76 0.0 0.9 0.00 0.00 0.00 85 1021.1
20260508224631 50 76 0.0 0.0 0.00 0.00 0.00 84 1021.2
20260508223155 50 76 0.0 0.0 0.00 0.00 0.00 85 1021.2
20260508221551 50 76 0.0 0.9 0.00 0.00 0.00 85 1021.2
20260508220054 50 76 0.0 0.0 0.00 0.00 0.00 85 1021.2
20260508214551 50 76 0.0 0.0 0.00 0.00 0.00 84 1021.2
20260508213049 51 76 0.0 0.0 0.00 0.00 0.00 83 1021.3
20260508211552 51 76 0.0 0.0 0.00 0.00 0.00 82 1021.2
20260508210048 51 76 0.0 0.0 0.00 0.00 0.00 80 1021.2
20260508204547 52 76 0.0 0.0 0.00 0.00 0.00 79 1021.2
20260508203046 52 76 0.0 0.9 0.00 0.00 0.00 78 1021.1
20260508201543 52 76 0.0 0.0 0.00 0.00 0.00 77 1021.1
20260508200043 53 76 0.0 0.0 0.00 0.00 0.00 75 1021.0
20260508194542 53 76 0.0 1.7 0.00 0.00 0.00 73 1020.9
20260508193041 53 76 0.9 2.6 0.00 0.00 0.00 72 1020.9
20260508191544 53 69 0.9 4.3 0.00 0.00 0.00 71 1020.8
20260508190038 54 90 0.9 2.6 0.00 0.00 0.00 71 1020.7
20260508184537 54 76 0.0 2.6 0.00 0.00 0.00 70 1020.6
20260508183038 54 81 0.0 2.6 0.00 0.00 0.00 68 1020.5
20260508181535 54 59 0.9 2.6 0.00 0.00 0.00 67 1020.3
20260508180038 55 59 1.7 3.5 0.00 0.00 0.00 66 1020.2
20260508174535 55 65 1.7 3.5 0.00 0.00 0.00 66 1020.2
20260508173034 55 63 0.0 2.6 0.00 0.00 0.00 65 1020.1
20260508171533 55 76 0.9 4.3 0.00 0.00 0.00 65 1020.0
20260508170032 56 58 1.7 3.5 0.00 0.00 0.00 63 1019.8
20260508164533 56 96 0.0 2.6 0.00 0.01 0.00 65 1019.8
20260508163035 56 76 0.0 2.6 0.00 0.01 0.00 66 1019.8
20260508160043 56 49 0.9 3.5 0.00 0.01 0.00 63 1019.9
20260508154600 56 47 0.9 2.6 0.00 0.01 0.00 65 1019.8
20260508153044 56 76 1.7 5.2 0.00 0.01 0.00 63 1019.8
20260508151541 56 360 0.0 7.0 0.00 0.01 0.00 64 1019.8
20260508150054 56 30 0.0 4.3 0.00 0.01 0.00 62 1019.9
20260508144538 57 46 1.7 5.2 0.00 0.01 0.00 60 1019.8